Montello, Wisconsin, United States (53949)
Lat: 43.79N, Lon: 89.32W
Wx Zone: WIZ046
Local Info
Past Weather Observations for Sunday, April 24, 2016

NOTE: This archive is for the closest National Weather Service station to Montello. Information may differ from the station used for current weather conditions.

Click here for Long-term Archive

Time Weather Temperature Dewpoint Humidity Pressure Winds Precip Visibility
23:55
Clear
48°F / 9°C 37°F / 3°C 66% 30.01 in
(1016 mb)
SE 4.6 mph
(SE 7 kph)
- 10SM
23:35
Clear
48°F / 9°C 37°F / 3°C 66% 30.01 in
(1016 mb)
SSE 5.8 mph
(SSE 9 kph)
- 10SM
23:15
Clear
48°F / 9°C 37°F / 3°C 66% 30.01 in
(1016 mb)
SSE 8.1 mph
(SSE 13 kph)
- 10SM
22:55
Clear
50°F / 10°C 36°F / 2°C 58% 30.01 in
(1016 mb)
SSE 3.5 mph
(SSE 6 kph)
- 10SM
22:35
Clear
50°F / 10°C 36°F / 2°C 58% 30.01 in
(1016 mb)
SE 4.6 mph
(SE 7 kph)
- 10SM
22:15
Clear
50°F / 10°C 36°F / 2°C 58% 30.01 in
(1016 mb)
SE 3.5 mph
(SE 6 kph)
- 10SM
21:55
Clear
50°F / 10°C 37°F / 3°C 62% 30.01 in
(1016 mb)
SE 4.6 mph
(SE 7 kph)
- 10SM
21:35
Clear
52°F / 11°C 37°F / 3°C 58% 30.04 in
(1017 mb)
SE 6.9 mph
(SE 11 kph)
- 10SM
21:15
Clear
52°F / 11°C 37°F / 3°C 58% 30.04 in
(1017 mb)
SE 4.6 mph
(SE 7 kph)
- 10SM
20:55
Clear
54°F / 12°C 37°F / 3°C 54% 30.04 in
(1017 mb)
SE 6.9 mph
(SE 11 kph)
- 10SM
20:35
Clear
54°F / 12°C 37°F / 3°C 54% 30.04 in
(1017 mb)
SE 12.7 mph
(SE 20 kph)
- 10SM
20:15
Clear
54°F / 12°C 37°F / 3°C 54% 30.01 in
(1016 mb)
ESE 3.5 mph
(ESE 6 kph)
- 10SM
19:55
Clear
55°F / 13°C 37°F / 3°C 51% 30.01 in
(1016 mb)
SE 3.5 mph
(SE 6 kph)
- 10SM
19:35
Clear
54°F / 12°C 37°F / 3°C 54% 30.01 in
(1016 mb)
Calm - 10SM
19:15
Clear
57°F / 14°C 37°F / 3°C 48% 30.01 in
(1016 mb)
SSE 4.6 mph
(SSE 7 kph)
- 10SM
18:55
Clear
59°F / 15°C 37°F / 3°C 45% 30.01 in
(1016 mb)
SSE 5.8 mph
(SSE 9 kph)
- 10SM
18:35
Clear
61°F / 16°C 37°F / 3°C 42% 30.01 in
(1016 mb)
SSE 5.8 mph
(SSE 9 kph)
- 10SM
18:15
Clear
63°F / 17°C 36°F / 2°C 37% 30.01 in
(1016 mb)
S 6.9 mph
(S 11 kph)
- 10SM
17:55
Clear
63°F / 17°C 36°F / 2°C 37% 30.01 in
(1016 mb)
SSE 9.2 mph
(SSE 15 kph)
- 10SM
17:35
Clear
63°F / 17°C 37°F / 3°C 39% 30.01 in
(1016 mb)
S 9.2 mph
(S 15 kph)
- 10SM
17:15
Clear
64°F / 18°C 36°F / 2°C 34% 30.01 in
(1016 mb)
SSE 8.1 mph
(SSE 13 kph)
- 10SM
16:55
Clear
64°F / 18°C 37°F / 3°C 37% 30.01 in
(1016 mb)
SE 11.5 mph
(SE 19 kph)
- 10SM
16:35
Clear
64°F / 18°C 37°F / 3°C 37% 30.01 in
(1016 mb)
SE 9.2 mph
(SE 15 kph)
- 10SM
16:15
Clear
64°F / 18°C 37°F / 3°C 37% 30.01 in
(1016 mb)
SE 11.5 mph
(SE 19 kph)
- 10SM
15:55
Partly Cloudy
64°F / 18°C 37°F / 3°C 37% 30.04 in
(1017 mb)
SE 12.7 mph
(SE 20 kph)
- 10SM
15:35
Clear
64°F / 18°C 37°F / 3°C 37% 30.04 in
(1017 mb)
SSE 11.5 mph
(SSE 19 kph)
- 10SM
15:15
Clear
64°F / 18°C 37°F / 3°C 37% 30.04 in
(1017 mb)
SE 5.8 mph
(SE 9 kph)
- 10SM
14:55
Partly Cloudy
66°F / 19°C 36°F / 2°C 32% 30.04 in
(1017 mb)
SSE 9.2 mph
(SSE 15 kph)
- 10SM
14:35
Partly Cloudy
64°F / 18°C 36°F / 2°C 34% 30.06 in
(1018 mb)
SE 9.2 mph
(SE 15 kph)
- 10SM
14:15
Clear
64°F / 18°C 36°F / 2°C 34% 30.06 in
(1018 mb)
SE 8.1 mph
(SE 13 kph)
- 10SM
13:55
Clear
64°F / 18°C 36°F / 2°C 34% 30.09 in
(1019 mb)
SE 13.8 mph
(SE 22 kph)
- 10SM
13:35
Clear
63°F / 17°C 36°F / 2°C 37% 30.09 in
(1019 mb)
E 6.9 mph
(E 11 kph)
- 10SM
13:15
Clear
63°F / 17°C 36°F / 2°C 37% 30.09 in
(1019 mb)
SE 6.9 mph
(SE 11 kph)
- 10SM
12:55
Clear
63°F / 17°C 36°F / 2°C 37% 30.12 in
(1020 mb)
SE 4.6 mph
(SE 7 kph)
- 10SM
12:35
Clear
61°F / 16°C 36°F / 2°C 39% 30.12 in
(1020 mb)
SE 8.1 mph
(SE 13 kph)
- 10SM
12:15
Partly Cloudy
61°F / 16°C 36°F / 2°C 39% 30.15 in
(1021 mb)
SE 6.9 mph
(SE 11 kph)
- 10SM
11:55
Partly Cloudy
59°F / 15°C 36°F / 2°C 42% 30.15 in
(1021 mb)
S 3.5 mph
(S 6 kph)
- 10SM
11:35
Partly Cloudy
59°F / 15°C 36°F / 2°C 42% 30.15 in
(1021 mb)
S 9.2 mph
(S 15 kph)
- 10SM
11:15
Partly Cloudy
59°F / 15°C 34°F / 1°C 39% 30.15 in
(1021 mb)
S 5.8 mph
(S 9 kph)
- 10SM
10:55
Partly Cloudy
57°F / 14°C 34°F / 1°C 41% 30.18 in
(1022 mb)
SSE 5.8 mph
(SSE 9 kph)
- 10SM
10:35
Overcast
57°F / 14°C 32°F / 0°C 39% 30.18 in
(1022 mb)
S 6.9 mph
(S 11 kph)
- 10SM
10:15
Overcast
55°F / 13°C 32°F / 0°C 41% 30.18 in
(1022 mb)
S 6.9 mph
(S 11 kph)
- 10SM
09:55
Overcast
52°F / 11°C 32°F / 0°C 47% 30.18 in
(1022 mb)
S 5.8 mph
(S 9 kph)
- 10SM
09:35
Overcast
52°F / 11°C 32°F / 0°C 47% 30.21 in
(1023 mb)
S 6.9 mph
(S 11 kph)
- 10SM
09:15
Overcast
50°F / 10°C 32°F / 0°C 50% 30.21 in
(1023 mb)
SE 4.6 mph
(SE 7 kph)
- 10SM
08:55
Overcast
48°F / 9°C 34°F / 1°C 58% 30.21 in
(1023 mb)
SSE 5.8 mph
(SSE 9 kph)
- 10SM
08:35
Overcast
48°F / 9°C 34°F / 1°C 58% 30.21 in
(1023 mb)
ESE 4.6 mph
(ESE 7 kph)
- 10SM
08:15
Overcast
46°F / 8°C 32°F / 0°C 57% 30.21 in
(1023 mb)
SE 5.8 mph
(SE 9 kph)
- 10SM
07:55
Overcast
46°F / 8°C 32°F / 0°C 57% 30.24 in
(1024 mb)
SSE 4.6 mph
(SSE 7 kph)
- 10SM
07:35
Overcast
45°F / 7°C 34°F / 1°C 66% 30.21 in
(1023 mb)
Calm - 10SM
07:15
Overcast
45°F / 7°C 34°F / 1°C 66% 30.21 in
(1023 mb)
E 3.5 mph
(E 6 kph)
- 10SM
06:55
Partly Cloudy
43°F / 6°C 34°F / 1°C 71% 30.21 in
(1023 mb)
E 3.5 mph
(E 6 kph)
- 10SM
06:35
Clear
41°F / 5°C 34°F / 1°C 76% 30.21 in
(1023 mb)
E 4.6 mph
(E 7 kph)
- 10SM
06:15
Clear
39°F / 4°C 32°F / 0°C 75% 30.21 in
(1023 mb)
E 4.6 mph
(E 7 kph)
- 10SM
05:55
Clear
39°F / 4°C 32°F / 0°C 75% 30.21 in
(1023 mb)
E 3.5 mph
(E 6 kph)
- 10SM
05:35
Clear
37°F / 3°C 32°F / 0°C 81% 30.21 in
(1023 mb)
Calm - 10SM
05:15
Clear
37°F / 3°C 32°F / 0°C 81% 30.18 in
(1022 mb)
Calm - 10SM
04:55
Clear
37°F / 3°C 32°F / 0°C 81% 30.18 in
(1022 mb)
Calm - 10SM
04:35
Clear
36°F / 2°C 32°F / 0°C 87% 30.18 in
(1022 mb)
Calm - 10SM
04:15
Clear
37°F / 3°C 32°F / 0°C 81% 30.18 in
(1022 mb)
E 3.5 mph
(E 6 kph)
- 10SM
03:55
Clear
37°F / 3°C 32°F / 0°C 81% 30.18 in
(1022 mb)
E 3.5 mph
(E 6 kph)
- 10SM
03:35
Clear
37°F / 3°C 32°F / 0°C 81% 30.18 in
(1022 mb)
E 3.5 mph
(E 6 kph)
- 10SM
03:15
Clear
37°F / 3°C 32°F / 0°C 81% 30.18 in
(1022 mb)
E 4.6 mph
(E 7 kph)
- 10SM
02:55
Clear
39°F / 4°C 34°F / 1°C 81% 30.18 in
(1022 mb)
E 3.5 mph
(E 6 kph)
- 10SM
02:35
Clear
39°F / 4°C 34°F / 1°C 81% 30.18 in
(1022 mb)
ENE 5.8 mph
(ENE 9 kph)
- 10SM
02:15
Clear
39°F / 4°C 34°F / 1°C 81% 30.18 in
(1022 mb)
E 3.5 mph
(E 6 kph)
- 10SM
01:55
Clear
39°F / 4°C 36°F / 2°C 87% 30.18 in
(1022 mb)
E 4.6 mph
(E 7 kph)
- 10SM
01:35
Clear
41°F / 5°C 36°F / 2°C 81% 30.18 in
(1022 mb)
E 4.6 mph
(E 7 kph)
- 10SM
01:15
Clear
41°F / 5°C 37°F / 3°C 87% 30.18 in
(1022 mb)
E 4.6 mph
(E 7 kph)
- 10SM
00:55
Clear
41°F / 5°C 37°F / 3°C 87% 30.18 in
(1022 mb)
E 5.8 mph
(E 9 kph)
- 10SM
00:35
Clear
43°F / 6°C 37°F / 3°C 81% 30.18 in
(1022 mb)
E 4.6 mph
(E 7 kph)
- 10SM
00:15
Clear
43°F / 6°C 37°F / 3°C 81% 30.18 in
(1022 mb)
E 5.8 mph
(E 9 kph)
- 10SM
Time Weather Temperature Dewpoint Humidity Pressure Winds Precip Visibility


Weather for websites

WeatherForYou.com, LLC is not responsible for any damages or problems caused by this service. Current weather conditions are obtained from the closest station including government and personal stations which may have varying degrees of accuracy. Weather forecasts are derived from the NOAA NDFD. Like all things, this site belongs to Jesus Christ... He just trusts us to maintain it. If you have any questions or comments email webmaster@weatherforyou.com

Copyright © 2016, WeatherForYou.com LLC. All rights reserved.